South Hill, VA

1:49 AM EST on December 06, 2019 (GMT -0500)
Mecklenburg-Brunswick Regional

Weather History for KAVC - September, 2019

Change the Weather History Date:

Thursday, September 5, 2019

  Actual Average (KEMV) Record (KEMV)
Temperature  
Mean Temperature 74 °F -  
Max Temperature 79 °F 83 °F 95 °F (2007)
Min Temperature 70 °F 60 °F 50 °F (2010)
Cooling Degree Days 10    
Growing Degree Days 24 (Base 50)    
Moisture  
Dew Point 73 °F    
Average Humidity 97    
Maximum Humidity 100    
Minimum Humidity 88    
Precipitation  
Precipitation 0.01 in - - ()
Sea Level Pressure  
Sea Level Pressure 29.97 in    
Wind  
Wind Speed 4 mph (NNE)    
Max Wind Speed 17 mph    
Max Gust Speed 25 mph    
Averages and records for this station are not official NWS values.
T = Trace of Precipitation, MM = Missing Value Source: NWS Daily Summary

Daily Weather History Graph

Daily Weather History Graph

Search for Another Location

Airport or City:

Astronomy

Sep. 05, 2019 Rise Set
Actual Time 6:46 AM EDT 7:34 PM EDT
Civil Twilight 6:20 AM EDT 8:01 PM EDT
Nautical Twilight 5:48 AM EDT 8:32 PM EDT
Astronomical Twilight 5:16 AM EDT 9:04 PM EDT
Moon 1:40 PM EDT (9/5) No Moon Set
Length of Visible Light 13h 41m
Length of Day
12h 48m
Waxing Crescent, 45% of the Moon is Illuminated
Sep 5
Waxing Crescent
Sep 5
First Quarter
Sep 14
Full
Sep 21
Last Quarter
Sep 28
New

Hourly Weather History & Observations

Time (EDT) Temp. Dew Point Humidity Pressure Visibility Wind Dir Wind Speed Gust Speed Precip Events Conditions
12:15 AM 72.3 °F 72.3 °F 100% 30.01 in - Calm Calm - N/A   Unknown
12:35 AM 71.8 °F 71.8 °F 100% 30.02 in - Calm Calm - N/A   Unknown
12:55 AM 71.6 °F 71.6 °F 100% 30.03 in - South 4.6 mph - N/A   Unknown
1:15 AM 73.8 °F 73.8 °F 100% 30.04 in - South 4.6 mph - N/A   Unknown
1:35 AM 74.1 °F 74.1 °F 100% 30.04 in - South 3.5 mph - N/A   Unknown
1:55 AM 73.4 °F 73.4 °F 100% 30.04 in - Calm Calm - N/A   Unknown
2:15 AM 72.7 °F 72.7 °F 100% 30.04 in - Calm Calm - N/A   Unknown
2:35 AM 72.1 °F 72.1 °F 100% 30.03 in - Calm Calm - N/A   Unknown
2:55 AM 72.0 °F 72.0 °F 100% 30.02 in - North 3.5 mph - N/A   Unknown
3:15 AM 72.0 °F 72.0 °F 100% 30.01 in - Calm Calm - N/A   Unknown
3:35 AM 70.7 °F 70.7 °F 100% 30.02 in - Calm Calm - N/A   Unknown
3:55 AM 70.9 °F 70.9 °F 100% 30.02 in - Calm Calm - N/A   Unknown
4:15 AM 71.6 °F 71.6 °F 100% 30.02 in - Calm Calm - N/A   Unknown
4:35 AM 70.7 °F 70.7 °F 100% 30.02 in - Calm Calm - N/A   Unknown
4:55 AM 70.9 °F 70.9 °F 100% 30.01 in - Calm Calm - N/A   Unknown
5:15 AM 72.0 °F 72.0 °F 100% 30.01 in - NE 3.5 mph - N/A   Unknown
5:35 AM 72.1 °F 72.1 °F 100% 30.01 in - Calm Calm - N/A   Unknown
5:55 AM 72.1 °F 72.1 °F 100% 30.01 in - Calm Calm - N/A   Mostly Cloudy
6:15 AM 71.6 °F 71.6 °F 100% 30.02 in - Calm Calm - N/A   Overcast
6:35 AM 71.6 °F 71.6 °F 100% 30.02 in - NNE 3.5 mph - N/A   Unknown
6:55 AM 71.8 °F 71.8 °F 100% 30.02 in - NNE 5.8 mph - N/A   Unknown
7:15 AM 71.8 °F 71.8 °F 100% 30.02 in - NE 3.5 mph - N/A   Mostly Cloudy
7:35 AM 72.0 °F 72.0 °F 100% 30.03 in - Calm Calm - N/A   Unknown
7:55 AM 72.0 °F 72.0 °F 100% 30.04 in - Calm Calm - N/A   Mostly Cloudy
8:15 AM 72.3 °F 72.3 °F 100% 30.04 in - North 4.6 mph - N/A   Overcast
8:35 AM 72.7 °F 72.7 °F 100% 30.03 in - NNE 3.5 mph - N/A   Overcast
8:55 AM 73.4 °F 73.4 °F 100% 30.04 in - Calm Calm - N/A   Unknown
9:15 AM 73.4 °F 73.4 °F 100% 30.02 in - NNE 4.6 mph - N/A   Mostly Cloudy
9:35 AM 74.3 °F 74.3 °F 100% 30.02 in - North 4.6 mph - N/A   Mostly Cloudy
9:55 AM 75.2 °F 75.2 °F 100% 30.02 in - NNE 4.6 mph - N/A   Mostly Cloudy
10:15 AM 75.9 °F 75.6 °F 99% 30.02 in - NNE 5.8 mph - N/A   Unknown
10:35 AM 76.6 °F 75.6 °F 96% 30.02 in - NNE 5.8 mph - N/A   Mostly Cloudy
10:55 AM 77.4 °F 76.1 °F 96% 30.01 in - NNE 3.5 mph - N/A   Unknown
11:15 AM 77.9 °F 75.9 °F 94% 30.00 in - NNE 6.9 mph - N/A   Unknown
11:35 AM 77.7 °F 75.4 °F 92% 30.00 in - NNE 6.9 mph - N/A   Unknown
11:55 AM 77.9 °F 75.4 °F 92% 30.00 in - NNE 5.8 mph - N/A   Overcast
12:15 PM 78.8 °F 75.6 °F 90% 29.99 in - NNE 5.8 mph - N/A   Overcast
12:35 PM 78.8 °F 75.6 °F 90% 29.99 in - North 5.8 mph - N/A   Overcast
12:55 PM 79.3 °F 75.6 °F 88% 30.00 in - NNE 4.6 mph - N/A   Unknown
1:15 PM 79.2 °F 75.4 °F 88% 29.99 in - NNE 8.1 mph - N/A   Unknown
1:35 PM 79.2 °F 75.2 °F 88% 30.00 in - NNE 6.9 mph - N/A   Overcast
1:55 PM 78.8 °F 75.6 °F 90% 30.00 in - NNE 6.9 mph - N/A   Overcast
2:15 PM 78.4 °F 75.4 °F 90% 29.98 in - NNE 9.2 mph - N/A   Overcast
2:35 PM 78.8 °F 75.4 °F 89% 29.97 in - NNE 8.1 mph - N/A   Unknown
2:55 PM 78.8 °F 75.2 °F 89% 29.96 in - North 9.2 mph 16.1 mph N/A   Unknown
3:15 PM 78.3 °F 75.2 °F 90% 29.95 in - North 9.2 mph 16.1 mph N/A   Unknown
3:35 PM 78.1 °F 75.2 °F 91% 29.93 in - NNE 8.1 mph - N/A   Unknown
3:55 PM 77.7 °F 75.4 °F 92% 29.94 in - NNE 8.1 mph - N/A   Overcast
4:15 PM 76.1 °F 75.6 °F 98% 29.95 in - North 6.9 mph - N/A   Unknown
4:35 PM 75.4 °F 75.4 °F 100% 29.94 in - NNE 8.1 mph - 0.01 in   Unknown
4:55 PM 75.4 °F 75.4 °F 100% 29.93 in - North 6.9 mph - 0.01 in   Unknown
5:15 PM 75.6 °F 75.4 °F 99% 29.93 in - NNE 10.4 mph - N/A   Unknown
5:35 PM 75.7 °F 75.2 °F 98% 29.92 in - NNE 6.9 mph 17.3 mph N/A   Unknown
5:55 PM 75.2 °F 74.7 °F 98% 29.92 in - North 8.1 mph 17.3 mph N/A   Overcast
6:15 PM 75.2 °F 74.5 °F 98% 29.91 in - North 10.4 mph - N/A   Overcast
6:35 PM 75.0 °F 74.3 °F 98% 29.91 in - North 9.2 mph 16.1 mph N/A   Overcast
6:55 PM 74.1 °F 74.1 °F 100% 29.91 in - NNE 8.1 mph - N/A   Unknown
7:15 PM 73.9 °F 73.6 °F 99% 29.91 in - NNE 9.2 mph 16.1 mph N/A   Overcast
7:35 PM 73.8 °F 73.4 °F 99% 29.90 in - North 11.5 mph 18.4 mph N/A   Overcast
7:55 PM 73.8 °F 73.0 °F 98% 29.90 in - North 10.4 mph 19.6 mph N/A   Overcast
8:15 PM 73.6 °F 72.7 °F 97% 29.91 in - North 8.1 mph 17.3 mph N/A   Overcast
8:35 PM 73.0 °F 72.7 °F 99% 29.91 in - NNE 10.4 mph 19.6 mph N/A   Overcast
8:55 PM 71.6 °F 71.6 °F 100% 29.89 in - North 16.1 mph 21.9 mph N/A   Overcast
9:15 PM 71.6 °F 71.6 °F 100% 29.89 in - North 13.8 mph 23.0 mph N/A   Overcast
9:55 PM 71.8 °F 71.6 °F 99% 29.90 in - North 11.5 mph 19.6 mph N/A   Overcast
10:15 PM 71.8 °F 71.6 °F 99% 29.88 in - North 15.0 mph 20.7 mph N/A   Overcast
10:35 PM 71.6 °F 71.2 °F 99% 29.87 in - North 12.7 mph 21.9 mph N/A   Overcast
10:55 PM 72.0 °F 70.9 °F 96% 29.86 in - North 15.0 mph 23.0 mph N/A   Overcast
11:15 PM 71.8 °F 70.5 °F 96% 29.86 in - North 15.0 mph 25.3 mph N/A   Overcast
11:35 PM 71.8 °F 70.3 °F 95% 29.86 in - North 17.3 mph 25.3 mph N/A   Overcast
11:55 PM 72.1 °F 70.5 °F 95% 29.85 in - North 13.8 mph 21.9 mph N/A   Overcast